Simultaneous Nadir Overpasses (SNOs) Predictions

Prediction of SNOs between AQUA and METOP-C Satellite Orbit:

Table of predicted SNOs for the next 14.0 days since TLE Epoch: 4/16/2022
Index Date (AQUA) Time (AQUA) Lat,Lon (AQUA) SZA (AQUA ) Date (METOP-C) Time (METOP-C) Lat,Lon (METOP-C) SZA (METOP-C ) Distance(km) Time Diff (sec)
1 04/18/2022 05:52:25 -73.27, -92.36 117.61 04/18/2022 05:51:17 -73.22, -94.71 117.58 75.32 68
2 04/18/2022 06:42:03 73.83, 74.07 62.97 04/18/2022 06:41:45 73.86, 74.08 63.00 2.60 18
3 04/18/2022 07:31:30 -73.91,-118.46 116.96 04/18/2022 07:32:25 -73.90,-118.49 116.98 2.23 55
4 04/21/2022 01:26:33 -73.81, -27.00 118.01 04/21/2022 01:25:27 -73.79, -26.99 118.03 2.50 66
5 04/21/2022 02:16:01 73.86, 140.53 62.03 04/21/2022 02:16:06 73.88, 140.55 62.05 1.97 5
6 04/21/2022 03:05:31 -74.09, -52.34 117.74 04/21/2022 03:06:42 -74.12, -51.55 117.75 24.42 71
7 04/23/2022 21:00:29 -73.82, 39.52 118.96 04/23/2022 20:59:47 -73.81, 39.46 118.96 2.12 42
8 04/23/2022 21:49:57 73.87,-152.96 61.09 04/23/2022 21:50:26 73.89,-153.01 61.11 3.21 29
9 04/26/2022 15:44:47 73.16, -60.19 59.44 04/26/2022 15:43:42 73.07, -63.13 59.46 95.15 65
10 04/26/2022 16:34:26 -73.85, 105.98 119.84 04/26/2022 16:34:07 -73.87, 106.01 119.82 2.65 19
11 04/26/2022 17:23:54 73.91, -86.52 60.21 04/26/2022 17:24:47 73.90, -86.58 60.20 1.89 53
12 04/29/2022 11:18:55 73.80, 4.97 59.23 04/29/2022 11:17:48 73.83, 4.99 59.27 3.16 67
13 04/29/2022 12:08:22 -73.86, 172.48 120.72 04/29/2022 12:08:28 -73.88, 172.44 120.70 1.99 6



Historial Predications of SNOs between AQUA and METOP-C
